Mena, AR

9:20 AM CDT on May 29, 2017 (GMT -0500)
Mena

Weather History for KMEZ - April, 2014

Change the Weather History Date:

Friday, April 18, 2014

  Actual Average (KFSM) Record (KFSM)
Temperature  
Mean Temperature 58 °F -  
Max Temperature 75 °F 72 °F 96 °F (2006)
Min Temperature 41 °F 49 °F 33 °F (1999)
Degree Days  
Heating Degree Days 7    
Growing Degree Days 8 (Base 50)    
Moisture  
Dew Point 42 °F    
Average Humidity 62    
Maximum Humidity 100    
Minimum Humidity 23    
Precipitation  
Precipitation 0.00 in - - ()
Sea Level Pressure  
Sea Level Pressure 30.20 in    
Wind  
Wind Speed 1 mph (ENE)    
Max Wind Speed 9 mph    
Max Gust Speed -    
Visibility 10 miles    
Events Thunderstorm    
Averages and records for this station are not official NWS values.
T = Trace of Precipitation, MM = Missing Value Source: NWS Daily Summary

Daily Weather History Graph

Daily Weather History Graph

Search for Another Location

Airport or City:

Trip Planner

Search our weather history database for the weather conditions in past years. The results will help you decide how hot, cold, wet, or windy it might be!

Date:

Astronomy

Apr. 18, 2014 Rise Set
Actual Time 6:41 AM CDT 7:51 PM CDT
Civil Twilight 6:15 AM CDT 8:17 PM CDT
Nautical Twilight 5:44 AM CDT 8:48 PM CDT
Astronomical Twilight 5:12 AM CDT 9:20 PM CDT
Moon 11:31 PM CDT (4/18) 9:09 AM CDT (4/18)
Length of Visible Light 14h 01m
Length of Day
13h 09m
Waning Gibbous, 87% of the Moon is Illuminated
Apr 18
Waning Gibbous
Apr 22
Last Quarter
Apr 29
New
May 6
First Quarter
May 14
Full

Hourly Weather History & Observations

Time (CDT) Temp. Dew Point Humidity Pressure Visibility Wind Dir Wind Speed Gust Speed Precip Events Conditions
12:35 AM 51.8 °F 46.4 °F 82% 30.21 in 10.0 mi Calm Calm - N/A   Clear
12:55 AM 51.8 °F 46.4 °F 82% 30.21 in 10.0 mi Calm Calm - N/A   Clear
1:15 AM 51.8 °F 46.4 °F 82% 30.21 in 10.0 mi Calm Calm - N/A   Clear
1:35 AM 50.0 °F 46.4 °F 87% 30.21 in 10.0 mi Calm Calm - N/A   Clear
1:55 AM 50.0 °F 46.4 °F 87% 30.21 in 10.0 mi West 4.6 mph - N/A   Clear
2:15 AM 50.0 °F 44.6 °F 82% 30.21 in 10.0 mi Calm Calm - N/A   Clear
2:35 AM 46.4 °F 46.4 °F 100% 30.21 in 10.0 mi Calm Calm - N/A   Clear
2:55 AM 46.4 °F 46.4 °F 100% 30.21 in 10.0 mi Calm Calm - N/A   Clear
3:15 AM 44.6 °F 44.6 °F 100% 30.21 in 10.0 mi Calm Calm - N/A   Clear
3:35 AM 46.4 °F 46.4 °F 100% 30.21 in 10.0 mi Calm Calm - N/A   Clear
3:55 AM 44.6 °F 44.6 °F 100% 30.21 in 7.0 mi Calm Calm - N/A   Clear
4:15 AM 44.6 °F 44.6 °F 100% 30.21 in 10.0 mi Calm Calm - N/A Thunderstorm Clear
4:35 AM 42.8 °F 42.8 °F 100% 30.21 in 10.0 mi Calm Calm - N/A   Clear
4:55 AM 44.6 °F 44.6 °F 100% 30.21 in 10.0 mi Calm Calm - N/A   Clear
5:15 AM 42.8 °F 42.8 °F 100% 30.22 in 10.0 mi Calm Calm - N/A   Clear
5:35 AM 42.8 °F 42.8 °F 100% 30.21 in 7.0 mi Calm Calm - N/A   Clear
5:55 AM 42.8 °F 42.8 °F 100% 30.22 in 7.0 mi Calm Calm - N/A   Clear
6:15 AM 41.0 °F 41.0 °F 100% 30.22 in 7.0 mi Calm Calm - N/A   Clear
6:35 AM 42.8 °F 42.8 °F 100% 30.23 in 7.0 mi Calm Calm - N/A   Clear
6:55 AM 42.8 °F 42.8 °F 100% 30.24 in 7.0 mi Calm Calm - N/A   Clear
7:15 AM 41.0 °F 41.0 °F 100% 30.24 in 10.0 mi Calm Calm - N/A   Clear
7:35 AM 44.6 °F 44.6 °F 100% 30.24 in 10.0 mi Calm Calm - N/A   Clear
7:55 AM 46.4 °F 46.4 °F 100% 30.25 in 10.0 mi Calm Calm - N/A   Clear
8:15 AM 50.0 °F 50.0 °F 100% 30.26 in 10.0 mi Calm Calm - N/A   Clear
8:35 AM 53.6 °F 51.8 °F 94% 30.26 in 10.0 mi Calm Calm - N/A   Clear
8:55 AM 55.4 °F 46.4 °F 72% 30.26 in 10.0 mi Calm Calm - N/A   Clear
9:15 AM 59.0 °F 44.6 °F 59% 30.26 in 10.0 mi Calm Calm - N/A   Clear
9:35 AM 59.0 °F 44.6 °F 59% 30.26 in 10.0 mi Calm Calm - N/A   Clear
9:55 AM 60.8 °F 44.6 °F 55% 30.26 in 10.0 mi Calm Calm - N/A   Clear
10:15 AM 64.4 °F 44.6 °F 49% 30.26 in 10.0 mi Calm Calm - N/A   Clear
10:35 AM 66.2 °F 42.8 °F 43% 30.26 in 10.0 mi Calm Calm - N/A   Clear
10:55 AM 68.0 °F 37.4 °F 33% 30.26 in 10.0 mi Calm Calm - N/A   Clear
11:15 AM 68.0 °F 39.2 °F 35% 30.25 in 10.0 mi NNW 4.6 mph - N/A   Clear
11:35 AM 69.8 °F 37.4 °F 31% 30.25 in 10.0 mi Calm Calm - N/A   Clear
11:55 AM 69.8 °F 37.4 °F 31% 30.24 in 10.0 mi Calm Calm - N/A   Clear
12:15 PM 71.6 °F 37.4 °F 29% 30.23 in 10.0 mi NNE 4.6 mph - N/A   Clear
12:35 PM 71.6 °F 37.4 °F 29% 30.23 in 10.0 mi NNE 9.2 mph - N/A   Clear
12:55 PM 71.6 °F 37.4 °F 29% 30.22 in 10.0 mi North 4.6 mph - N/A   Clear
1:15 PM 71.6 °F 37.4 °F 29% 30.21 in 10.0 mi NE 3.5 mph - N/A   Clear
1:35 PM 71.6 °F 37.4 °F 29% 30.21 in 10.0 mi NE 3.5 mph - N/A   Scattered Clouds
1:55 PM 71.6 °F 35.6 °F 27% 30.21 in 10.0 mi Calm Calm - N/A   Scattered Clouds
2:15 PM 73.4 °F 37.4 °F 27% 30.20 in 10.0 mi ENE 8.1 mph - N/A   Clear
2:35 PM 73.4 °F 37.4 °F 27% 30.19 in 10.0 mi East 5.8 mph - N/A   Clear
2:55 PM 73.4 °F 37.4 °F 27% 30.18 in 10.0 mi East 8.1 mph - N/A   Clear
3:15 PM 75.2 °F 35.6 °F 24% 30.18 in 10.0 mi ENE 6.9 mph - N/A   Clear
3:35 PM 75.2 °F 37.4 °F 25% 30.17 in 10.0 mi ENE 4.6 mph - N/A   Scattered Clouds
3:55 PM 75.2 °F 35.6 °F 24% 30.16 in 10.0 mi ENE 8.1 mph - N/A   Scattered Clouds
4:15 PM 73.4 °F 37.4 °F 27% 30.15 in 10.0 mi NE 3.5 mph - N/A   Scattered Clouds
4:35 PM 75.2 °F 35.6 °F 24% 30.15 in 10.0 mi ESE 6.9 mph - N/A   Scattered Clouds
4:55 PM 73.4 °F 35.6 °F 25% 30.14 in 10.0 mi Calm Calm - N/A   Scattered Clouds
5:15 PM 75.2 °F 35.6 °F 24% 30.14 in 10.0 mi Calm Calm - N/A   Clear
5:35 PM 75.2 °F 35.6 °F 24% 30.14 in 10.0 mi Calm Calm - N/A   Clear
5:55 PM 73.4 °F 35.6 °F 25% 30.13 in 10.0 mi East 4.6 mph - N/A   Clear
6:15 PM 73.4 °F 33.8 °F 23% 30.13 in 10.0 mi ESE 4.6 mph - N/A   Clear
6:35 PM 73.4 °F 35.6 °F 25% 30.13 in 10.0 mi ENE 3.5 mph - N/A   Clear
6:55 PM 71.6 °F 39.2 °F 31% 30.13 in 10.0 mi East 4.6 mph - N/A   Clear
7:15 PM 69.8 °F 41.0 °F 35% 30.14 in 10.0 mi NE 8.1 mph - N/A   Clear
7:35 PM 68.0 °F 42.8 °F 40% 30.14 in 10.0 mi East 6.9 mph - N/A   Clear
7:55 PM 64.4 °F 44.6 °F 49% 30.15 in 10.0 mi East 3.5 mph - N/A   Clear
8:15 PM 64.4 °F 44.6 °F 49% 30.15 in 10.0 mi ESE 3.5 mph - N/A   Clear
8:35 PM 62.6 °F 44.6 °F 52% 30.16 in 10.0 mi Calm Calm - N/A   Clear
8:55 PM 60.8 °F 44.6 °F 55% 30.17 in 10.0 mi Calm Calm - N/A   Clear
9:15 PM 57.2 °F 44.6 °F 63% 30.18 in 10.0 mi Calm Calm - N/A   Clear
9:35 PM 57.2 °F 46.4 °F 67% 30.19 in 10.0 mi Calm Calm - N/A   Clear
9:55 PM 55.4 °F 46.4 °F 72% 30.19 in 10.0 mi Calm Calm - N/A   Clear
10:15 PM 55.4 °F 46.4 °F 72% 30.20 in 10.0 mi Calm Calm - N/A   Clear
10:35 PM 55.4 °F 46.4 °F 72% 30.21 in 10.0 mi Calm Calm - N/A   Clear
10:55 PM 51.8 °F 46.4 °F 82% 30.21 in 10.0 mi Calm Calm - N/A   Clear
11:15 PM 51.8 °F 48.2 °F 88% 30.21 in 10.0 mi Calm Calm - N/A   Clear
11:35 PM 53.6 °F 48.2 °F 82% 30.21 in 10.0 mi Calm Calm - N/A   Clear
11:55 PM 51.8 °F 50.0 °F 94% 30.21 in 10.0 mi Calm Calm - N/A   Clear